Terug naar catalogus

FLOCK 4Q 29

ActiefWetenschapPO
NORAD 58304·PAYLOAD·🇺🇸 United States

Gelanceerd Nov 11, 2023 vanaf Vandenberg Space Force Base

Loading…

Volgende Passages (komende 24 uur)

TLE

VersSource: Space-Track

Epoch: Sep 14, 2026, 17:00 UTC

1 58304U 23174BA  26257.70867517  .00236983  00000-0  13482-2 0  9991
2 58304  97.3845 353.8406 0004662 220.6857 139.4062 15.78305111159760

Volg FLOCK 4Q 29 in realtime met AllMySat

Download on the App Store